GSAT0102 (GALILEO-FM2)

Last updated on Fri Jun 19 2026 17:09:20 GMT+0000 (Coordinated Universal Time)

1 37847U 11060B 26170.11569855 -.00000094 00000+0 00000+0 0 9995 2 37847 56.9943 341.7092 0003007 14.4392 342.6958 1.70475868 91155
UTC large
Height (km)
Speed (km/s)
/
Latitude / Longitude
Inclination (degrees)
Orbital Period (minutes)
Azimuth
Elevation
Range (km)
Doppler Factor

Next 0 passes for location: London (51.5072 / 0.1276)

No passes found over London.
GSAT0102 (GALILEO-FM2)